+ View the NASA Portal
+ Center for Near-Earth Object Studies
IMPORTANT:
The SSD Announcement email list is now available. Major changes are coming in the near future, including possible hostname and/or URL changes. To be notified of such changes, subscribe to this email list.
Please visit
this page
for more details.
Don't show this message again
JPL Small-Body Database Browser
Search:
[
help
]
266150 (2006 UN35)
Classification:
Main-belt Asteroid
SPK-ID:
2266150
[
Ephemeris
|
Orbit Diagram
|
Orbital Elements
|
Mission Design
|
Physical Parameters
|
Discovery Circumstances
]
[ show orbit diagram ]
Orbital Elements at Epoch 2458600.5 (2019-Apr-27.0) TDB
Reference:
JPL 11
(heliocentric ecliptic J2000)
Element
Value
Uncertainty (1-sigma)
Units
e
.2306473558608972
9.7028e-08
a
2.344642515501071
1.6696e-08
au
q
1.803856918861707
2.2914e-07
au
i
1.793571457022179
7.4404e-06
deg
node
315.8162783567068
0.00024241
deg
peri
29.7706792714373
0.00024271
deg
M
213.0103777211676
1.589e-05
deg
t
p
2459135.923654141764
(2020-Oct-13.42365414)
6.1391e-05
TDB
period
1311.334177901299
3.59
1.4007e-05
3.835e-08
d
yr
n
.2745295639103645
2.9324e-09
deg/d
Q
2.885428112140436
2.0547e-08
au
Orbit Determination Parameters
# obs. used (total)
176
data-arc span
6101 days (16.70 yr)
first obs. used
2002-07-17
last obs. used
2019-03-31
planetary ephem.
DE431
SB-pert. ephem.
SB431-N16
condition code
0
norm. resid. RMS
.5705
source
ORB
producer
Otto Matic
solution date
2019-Jul-14 08:29:34
Additional Information
Earth MOID
= .795947 au
Jupiter MOID
= 2.53016 au
T_jup
= 3.525
[ show covariance matrix ]
[
Ephemeris
|
Orbit Diagram
|
Orbital Elements
|
Mission Design
|
Physical Parameters
|
Discovery Circumstances
]
Physical Parameter Table
Parameter
Symbol
Value
Units
Sigma
Reference
Notes
absolute magnitude
H
17.2
n/a
MPO433727
266150 (2006 UN35)
Discovered 2006-Oct-16 by CSS at Catalina
Reference:
20110218/Numbers.arc
Last Updated:
2011-02-22
[
Ephemeris
|
Orbit Diagram
|
Orbital Elements
|
Mission Design
|
Physical Parameters
|
Discovery Circumstances
]
2019-Dec-08 09:12 UT
(server date/time)
Site Manager:
Ryan S. Park
Webmaster
:
Alan B. Chamberlin